Location: Little Baddow
(51.7333°N, 0.5667°E)
Time: 06:57:23
(UTC+00:00)

CZ-4 R/B - Pass Details

Date: 08 November 2025
Orbit: 675 x 744 km, 98.7° (Epoch: 11 December)

Event Time Altitude Azimuth Distance (km) Brightness Sun altitude
Rises 05:28:05 0° 13° (NNE) 3,183 7.3 -15.0°
Reaches altitude 10° 05:30:24 10° 12° (NNE) 2,248 6.5 -14.7°
Maximum altitude 05:35:19 71° 289° (WNW) 772 3.8 -13.9°
Drops below altitude 10° 05:40:06 10° 207° (SSW) 2,191 6.2 -13.2°
Sets 05:42:20 0° 205° (SSW) 3,095 7.0 -12.9°
